sat.trackr.live / text

‹ back to catalog

STARLINK-35020

NORAD 65340 · 2025-189T

PAYLOAD ACTIVE UNKNOWN

§ Identity

Operator
Country
US
Launch date
2025-08-27
Launch site
AFETR
Launch vehicle
Mass (kg)
RCS (m²)

Purposes: comms

External: N2YO · Heavens-Above · Gunter

§ Orbital elements

Epoch: 2026-09-20T14:18:05.750496Z

Period
94.01 min
Inclination
53.1613°
Eccentricity
0.0000879
Mean motion
15.31718910 rev/d
Perigee alt
470.1 km
Apogee alt
471.3 km
Semi-major
6,848.8 km
B*
6.7710e-4
RAAN
19.5881°
Arg perigee
88.4161°
Mean anomaly
271.6941°
Rev number
6,092

§ Raw data

STARLINK-350201 65340U 25189T   26263.59589989  .00020717  00000+0  67710-3 0  99942 65340  53.1613  19.5881 0000879  88.4161 271.6941 15.31718910 60926

JSON: /api/v1/satellites/65340 · /tle

For live sub-satellite position, see the globe view (requires WebGL).

§ Visibility from observer

Set your observer location to see the next 7 days of passes ≥ 10°. The values pass through the URL so the page stays shareable.

No JS? Fill the form by hand. The geolocation button needs JavaScript.